Time,TemperatureF,DewpointF,PressureIn,WindDirection,WindDirectionDegrees,WindSpeedMPH,WindSpeedGustMPH,Humidity,HourlyPrecipIn,Conditions,Clouds,dailyrainin,SoftwareType,DateUTC
2013-04-06 00:23:00,36.0,-99.9,30.04,WNW,292,-999.0,-999.0,-999,-99.99,,,-99.99,,2013-04-06 04:23:00,
2013-04-06 00:33:00,36.0,-99.9,30.04,WNW,292,-999.0,-999.0,-999,-99.99,,,-99.99,,2013-04-06 04:33:00,
2013-04-06 00:43:00,36.0,-99.9,30.04,WNW,292,-999.0,-999.0,-999,-99.99,,,-99.99,,2013-04-06 04:43:00,
2013-04-06 00:52:00,34.0,-99.9,30.07,NNW,344,-999.0,5.0,-999,-99.99,,,-99.99,,2013-04-06 04:52:00,
2013-04-06 01:23:00,34.0,-99.9,30.07,NNW,344,-999.0,5.0,-999,-99.99,,,-99.99,,2013-04-06 05:23:00,
2013-04-06 01:33:00,34.0,-99.9,30.07,NNW,344,-999.0,5.0,-999,-99.99,,,-99.99,,2013-04-06 05:33:00,
2013-04-06 01:43:00,34.0,-99.9,30.07,NNW,344,-999.0,5.0,-999,-99.99,,,-99.99,,2013-04-06 05:43:00,
2013-04-06 01:53:00,34.0,-99.9,30.09,NNW,348,-999.0,8.0,-999,-99.99,,,-99.99,,2013-04-06 05:53:00,
2013-04-06 02:33:00,34.0,-99.9,30.09,NNW,348,-999.0,8.0,-999,-99.99,,,-99.99,,2013-04-06 06:33:00,
2013-04-06 02:43:00,34.0,-99.9,30.09,NNW,348,-999.0,8.0,-999,-99.99,,,-99.99,,2013-04-06 06:43:00,
2013-04-06 02:52:00,33.0,-99.9,30.11,NE,56,5.0,8.0,-999,-99.99,,,-99.99,,2013-04-06 06:52:00,
2013-04-06 03:23:00,33.0,-99.9,30.11,NE,56,5.0,8.0,-999,-99.99,,,-99.99,,2013-04-06 07:23:00,
2013-04-06 03:34:00,33.0,-99.9,30.11,NE,56,5.0,8.0,-999,-99.99,,,-99.99,,2013-04-06 07:34:00,
2013-04-06 03:45:00,33.0,-99.9,30.11,NE,56,5.0,8.0,-999,-99.99,,,-99.99,,2013-04-06 07:45:00,
2013-04-06 03:52:00,32.0,-99.9,30.13,North,352,-999.0,10.0,-999,-99.99,,,-99.99,,2013-04-06 07:52:00,
2013-04-06 04:22:00,32.0,-99.9,30.13,North,352,-999.0,10.0,-999,-99.99,,,-99.99,,2013-04-06 08:22:00,
2013-04-06 04:32:00,32.0,-99.9,30.13,North,352,-999.0,10.0,-999,-99.99,,,-99.99,,2013-04-06 08:32:00,
2013-04-06 04:43:00,32.0,-99.9,30.13,North,352,-999.0,10.0,-999,-99.99,,,-99.99,,2013-04-06 08:43:00,
2013-04-06 04:52:00,31.0,-99.9,30.16,NNE,23,-999.0,9.0,-999,-99.99,,,-99.99,,2013-04-06 08:52:00,
2013-04-06 05:22:00,31.0,-99.9,30.16,NNE,23,-999.0,9.0,-999,-99.99,,,-99.99,,2013-04-06 09:22:00,
2013-04-06 05:33:00,31.0,-99.9,30.16,NNE,23,-999.0,9.0,-999,-99.99,,,-99.99,,2013-04-06 09:33:00,
2013-04-06 05:43:00,31.0,-99.9,30.16,NNE,23,-999.0,9.0,-999,-99.99,,,-99.99,,2013-04-06 09:43:00,
2013-04-06 05:52:00,29.0,-99.9,30.19,NE,44,-999.0,-999.0,-999,-99.99,,,-99.99,,2013-04-06 09:52:00,
2013-04-06 06:23:00,29.0,-99.9,30.19,NE,44,-999.0,-999.0,-999,-99.99,,,-99.99,,2013-04-06 10:23:00,
2013-04-06 06:43:00,29.0,-99.9,30.19,NE,44,-999.0,-999.0,-999,-99.99,,,-99.99,,2013-04-06 10:43:00,
2013-04-06 06:52:00,29.0,-99.9,30.22,ENE,74,-999.0,-999.0,-999,-99.99,,,-99.99,,2013-04-06 10:52:00,
2013-04-06 07:23:00,29.0,-99.9,30.22,ENE,74,-999.0,-999.0,-999,-99.99,,,-99.99,,2013-04-06 11:23:00,
2013-04-06 07:33:00,29.0,-99.9,30.22,ENE,74,-999.0,-999.0,-999,-99.99,,,-99.99,,2013-04-06 11:33:00,
2013-04-06 07:43:00,29.0,-99.9,30.22,ENE,74,-999.0,-999.0,-999,-99.99,,,-99.99,,2013-04-06 11:43:00,
2013-04-06 07:52:00,34.0,-99.9,30.25,North,11,-999.0,12.0,-999,-99.99,,,-99.99,,2013-04-06 11:52:00,
2013-04-06 08:22:00,34.0,-99.9,30.25,North,11,-999.0,12.0,-999,-99.99,,,-99.99,,2013-04-06 12:22:00,
2013-04-06 08:33:00,34.0,-99.9,30.25,North,11,-999.0,12.0,-999,-99.99,,,-99.99,,2013-04-06 12:33:00,
2013-04-06 08:44:00,34.0,-99.9,30.25,North,11,-999.0,12.0,-999,-99.99,,,-99.99,,2013-04-06 12:44:00,
2013-04-06 08:52:00,38.0,-99.9,30.28,NE,39,5.0,11.0,-999,-99.99,,,-99.99,,2013-04-06 12:52:00,
2013-04-06 09:33:00,38.0,-99.9,30.28,NE,39,5.0,11.0,-999,-99.99,,,-99.99,,2013-04-06 13:33:00,
2013-04-06 09:44:00,38.0,-99.9,30.28,NE,39,5.0,11.0,-999,-99.99,,,-99.99,,2013-04-06 13:44:00,
2013-04-06 10:23:00,40.0,-99.9,30.30,NNE,23,8.0,12.0,-999,-99.99,,,-99.99,,2013-04-06 14:23:00,
2013-04-06 10:33:00,40.0,-99.9,30.30,NNE,23,8.0,12.0,-999,-99.99,,,-99.99,,2013-04-06 14:33:00,
2013-04-06 10:43:00,40.0,-99.9,30.30,NNE,23,8.0,12.0,-999,-99.99,,,-99.99,,2013-04-06 14:43:00,
2013-04-06 10:52:00,43.0,-99.9,30.31,NE,42,-999.0,7.0,-999,-99.99,,,-99.99,,2013-04-06 14:52:00,
2013-04-06 11:23:00,43.0,-99.9,30.31,NE,42,-999.0,7.0,-999,-99.99,,,-99.99,,2013-04-06 15:23:00,
2013-04-06 11:34:00,43.0,-99.9,30.31,NE,42,-999.0,7.0,-999,-99.99,,,-99.99,,2013-04-06 15:34:00,
2013-04-06 11:43:00,43.0,-99.9,30.31,NE,42,-999.0,7.0,-999,-99.99,,,-99.99,,2013-04-06 15:43:00,
2013-04-06 11:52:00,45.0,-99.9,30.31,SE,142,-999.0,14.0,-999,-99.99,,,-99.99,,2013-04-06 15:52:00,
2013-04-06 12:23:00,45.0,-99.9,30.31,SE,142,-999.0,14.0,-999,-99.99,,,-99.99,,2013-04-06 16:23:00,
2013-04-06 12:33:00,45.0,-99.9,30.31,SE,142,-999.0,14.0,-999,-99.99,,,-99.99,,2013-04-06 16:33:00,
2013-04-06 12:43:00,45.0,-99.9,30.31,SE,142,-999.0,14.0,-999,-99.99,,,-99.99,,2013-04-06 16:43:00,
2013-04-06 12:52:00,48.0,-99.9,30.30,ENE,77,10.0,13.0,-999,-99.99,,,-99.99,,2013-04-06 16:52:00,
2013-04-06 13:23:00,48.0,-99.9,30.30,ENE,77,10.0,13.0,-999,-99.99,,,-99.99,,2013-04-06 17:23:00,
2013-04-06 13:33:00,48.0,-99.9,30.30,ENE,77,10.0,13.0,-999,-99.99,,,-99.99,,2013-04-06 17:33:00,
2013-04-06 13:43:00,48.0,-99.9,30.30,ENE,77,10.0,13.0,-999,-99.99,,,-99.99,,2013-04-06 17:43:00,
2013-04-06 13:52:00,49.0,-99.9,30.28,WSW,253,-999.0,9.0,-999,-99.99,,,-99.99,,2013-04-06 17:52:00,
2013-04-06 14:33:00,49.0,-99.9,30.28,WSW,253,-999.0,9.0,-999,-99.99,,,-99.99,,2013-04-06 18:33:00,
2013-04-06 14:43:00,49.0,-99.9,30.28,WSW,253,-999.0,9.0,-999,-99.99,,,-99.99,,2013-04-06 18:43:00,
2013-04-06 14:52:00,50.0,-99.9,30.27,NE,36,-999.0,7.0,-999,-99.99,,,-99.99,,2013-04-06 18:52:00,
2013-04-06 15:33:00,50.0,-99.9,30.27,NE,36,-999.0,7.0,-999,-99.99,,,-99.99,,2013-04-06 19:33:00,
2013-04-06 15:42:00,50.0,-99.9,30.27,NE,36,-999.0,7.0,-999,-99.99,,,-99.99,,2013-04-06 19:42:00,
2013-04-06 15:52:00,51.0,-99.9,30.24,North,10,-999.0,8.0,-999,-99.99,,,-99.99,,2013-04-06 19:52:00,
2013-04-06 16:23:00,51.0,-99.9,30.24,North,10,-999.0,8.0,-999,-99.99,,,-99.99,,2013-04-06 20:23:00,
2013-04-06 16:32:00,51.0,-99.9,30.24,North,10,-999.0,8.0,-999,-99.99,,,-99.99,,2013-04-06 20:32:00,
2013-04-06 16:42:00,51.0,-99.9,30.24,North,10,-999.0,8.0,-999,-99.99,,,-99.99,,2013-04-06 20:42:00,
2013-04-06 16:52:00,50.0,-99.9,30.24,South,180,-999.0,6.0,-999,-99.99,,,-99.99,,2013-04-06 20:52:00,
2013-04-06 17:22:00,50.0,-99.9,30.24,South,180,-999.0,6.0,-999,-99.99,,,-99.99,,2013-04-06 21:22:00,
2013-04-06 17:33:00,50.0,-99.9,30.24,South,180,-999.0,6.0,-999,-99.99,,,-99.99,,2013-04-06 21:33:00,
2013-04-06 17:43:00,50.0,-99.9,30.24,South,180,-999.0,6.0,-999,-99.99,,,-99.99,,2013-04-06 21:43:00,
2013-04-06 17:53:00,49.0,-99.9,30.26,WSW,253,-999.0,-999.0,-999,-99.99,,,-99.99,,2013-04-06 21:53:00,
2013-04-06 18:23:00,49.0,-99.9,30.26,WSW,253,-999.0,-999.0,-999,-99.99,,,-99.99,,2013-04-06 22:23:00,
2013-04-06 18:35:00,49.0,-99.9,30.26,WSW,253,-999.0,-999.0,-999,-99.99,,,-99.99,,2013-04-06 22:35:00,
2013-04-06 18:44:00,49.0,-99.9,30.26,WSW,253,-999.0,-999.0,-999,-99.99,,,-99.99,,2013-04-06 22:44:00,
2013-04-06 18:52:00,47.0,-99.9,30.27,SSW,195,-999.0,8.0,-999,-99.99,,,-99.99,,2013-04-06 22:52:00,
2013-04-06 19:24:00,47.0,-99.9,30.27,SSW,195,-999.0,8.0,-999,-99.99,,,-99.99,,2013-04-06 23:24:00,
2013-04-06 19:34:00,47.0,-99.9,30.27,SSW,195,-999.0,8.0,-999,-99.99,,,-99.99,,2013-04-06 23:34:00,
2013-04-06 19:43:00,47.0,-99.9,30.27,SSW,195,-999.0,8.0,-999,-99.99,,,-99.99,,2013-04-06 23:43:00,
2013-04-06 19:52:00,42.0,-99.9,30.28,SSW,195,-999.0,-999.0,-999,-99.99,,,-99.99,,2013-04-06 23:52:00,
2013-04-06 20:33:00,42.0,-99.9,30.28,SSW,195,-999.0,-999.0,-999,-99.99,,,-99.99,,2013-04-07 00:33:00,
2013-04-06 20:44:00,42.0,-99.9,30.28,SSW,195,-999.0,-999.0,-999,-99.99,,,-99.99,,2013-04-07 00:44:00,
2013-04-06 20:52:00,39.0,-99.9,30.29,SSW,195,-999.0,-999.0,-999,-99.99,,,-99.99,,2013-04-07 00:52:00,
2013-04-06 21:24:00,39.0,-99.9,30.29,SSW,195,-999.0,-999.0,-999,-99.99,,,-99.99,,2013-04-07 01:24:00,
2013-04-06 21:33:00,39.0,-99.9,30.29,SSW,195,-999.0,-999.0,-999,-99.99,,,-99.99,,2013-04-07 01:33:00,
2013-04-06 21:43:00,39.0,-99.9,30.29,SSW,195,-999.0,-999.0,-999,-99.99,,,-99.99,,2013-04-07 01:43:00,
2013-04-06 21:53:00,36.0,-99.9,30.29,SSW,195,-999.0,-999.0,-999,-99.99,,,-99.99,,2013-04-07 01:53:00,
2013-04-06 22:24:00,36.0,-99.9,30.29,SSW,195,-999.0,-999.0,-999,-99.99,,,-99.99,,2013-04-07 02:24:00,
2013-04-06 22:33:00,36.0,-99.9,30.29,SSW,195,-999.0,-999.0,-999,-99.99,,,-99.99,,2013-04-07 02:33:00,
2013-04-06 22:43:00,36.0,-99.9,30.29,SSW,195,-999.0,-999.0,-999,-99.99,,,-99.99,,2013-04-07 02:43:00,
2013-04-06 22:52:00,34.0,-99.9,30.29,SSW,195,-999.0,-999.0,-999,-99.99,,,-99.99,,2013-04-07 02:52:00,
2013-04-06 23:35:00,34.0,-99.9,30.29,SSW,195,-999.0,-999.0,-999,-99.99,,,-99.99,,2013-04-07 03:35:00,
2013-04-06 23:44:00,34.0,-99.9,30.29,SSW,195,-999.0,-999.0,-999,-99.99,,,-99.99,,2013-04-07 03:44:00,
2013-04-06 23:52:00,33.0,-99.9,30.29,SSW,195,-999.0,-999.0,-999,-99.99,,,-99.99,,2013-04-07 03:52:00,